Vertical_Velocity
-0 1 -1 -2 -0 1 2 -4 1 2 -1 6 4 1 -2 4 -3 -1 0 -1 -4 -5
1 0 -2 -5 8 -1 7 0 1 2 1 4 5 -1 1 -5 12 2 4 -3 -1 1
0 -1 -0 -4 -3 2 2 -1 2 4 2 3 0 1 1 -5 -1 9 -1 -3 -4 -2
1 0 -1 -1 -3 1 1 -1 -1 3 1 6 2 1 -2 -2 -1 2 4 -3 -3 1
-0 -1 0 -2 -2 2 1 -2 -5 4 0 4 -2 -1 0 1 -1 4 1 -8 -5 3
-0 -0 -2 -2 -1 3 1 -6 -5 6 -1 4 -2 -2 -5 -4 -6 1 2 7 4 0
-0 -0 -1 -2 -1 -1 -0 -5 -3 4 2 2 1 -1 0 -0 2 3 -4 4 6 -5
2 1 -2 -1 2 -0 -1 -5 -1 -2 1 4 4 -2 -3 -1 -0 -0 0 -0 -1 -2
1 2 -0 -2 2 -0 -0 -4 -1 -0 1 -1 -1 -1 -3 -3 -4 -2 -2 0 -3 1
-1 0 3 -0 -2 0 3 -2 -1 -4 -2 1 1 -1 -0 1 -1 -1 0 0 -1 -0
1 -0 -0 3 1 -0 2 -1 -4 -5 -3 0 -0 -1 0 -0 0 1 -0 -1 1 -1
-3 1 0 -2 -1 -1 -0 -0 0 -2 -4 -3 -1 -1 -1 -0 -1 1 -0 0 0 4
-1 0 -2 2 3 3 0 -5 -2 -1 -1 -3 -2 -2 -1 -1 -1 -1 -1 2 -1 -1
2 0 -1 1 -1 0 -1 -1 -0 -1 -1 -1 -0 -4 -5 -4 -3 -2 -5 -2 1 -0
Height
3025 3022 3020 3018 3016 3015 3014 3015 3018 3024 3028 3032 3040 3047 3053 3059 3066 3072 3079 3083 3089 3096
3025 3022 3021 3019 3017 3015 3014 3015 3017 3022 3027 3031 3038 3046 3051 3058 3063 3069 3075 3080 3086 3093
3025 3022 3021 3019 3018 3016 3014 3016 3018 3021 3027 3031 3039 3046 3051 3058 3063 3068 3073 3077 3083 3089
3026 3023 3020 3019 3018 3016 3015 3017 3019 3022 3027 3032 3040 3046 3051 3057 3062 3066 3071 3075 3081 3085
3028 3025 3022 3020 3019 3016 3017 3018 3021 3024 3027 3032 3041 3047 3052 3056 3062 3067 3072 3073 3079 3083
3030 3028 3025 3023 3021 3018 3019 3021 3024 3027 3029 3032 3041 3049 3054 3058 3062 3067 3071 3073 3076 3082
3034 3031 3028 3026 3024 3022 3023 3026 3027 3031 3035 3036 3042 3049 3054 3058 3061 3065 3070 3073 3076 3080
3039 3036 3033 3030 3028 3029 3028 3030 3032 3034 3038 3039 3043 3049 3054 3057 3060 3064 3069 3071 3076 3081
3043 3039 3038 3036 3033 3033 3034 3036 3036 3038 3040 3042 3045 3050 3054 3057 3060 3062 3066 3069 3074 3078
3049 3045 3042 3041 3040 3038 3038 3040 3041 3042 3044 3045 3047 3050 3054 3057 3059 3062 3065 3067 3070 3073
3056 3052 3049 3047 3046 3045 3044 3044 3045 3046 3047 3047 3047 3050 3053 3055 3058 3060 3062 3065 3067 3069
3061 3058 3055 3054 3052 3051 3050 3049 3049 3050 3050 3050 3050 3051 3052 3053 3055 3057 3058 3060 3061 3062
3064 3062 3060 3058 3056 3055 3055 3055 3054 3053 3053 3053 3053 3052 3053 3054 3054 3055 3055 3054 3056 3057
3066 3063 3061 3060 3060 3059 3058 3056 3056 3055 3054 3054 3054 3054 3053 3053 3053 3052 3052 3052 3052 3051